Probability
0 0 6 3 6 0 3 0 0 0 0 0 0 0 0 0 0 0 0 0 0 0 0 0 0 0 0 0 0 0 0 0 0 0 3 3 3 3
0 0 0 3 6 3 0 0 6 0 0 0 0 0 0 0 0 0 0 0 0 0 0 0 0 0 0 0 0 0 0 0 0 0 0 0 3 3
0 0 0 0 0 0 0 0 3 3 0 0 0 0 0 0 0 0 0 0 0 0 0 0 0 0 0 0 0 0 0 0 0 0 0 0 0 3
0 0 0 0 0 0 0 3 3 0 0 0 0 0 0 0 0 0 0 0 0 0 0 0 0 0 0 0 0 0 0 0 0 0 0 0 0 0
0 0 0 0 0 0 0 0 0 0 0 0 0 0 0 0 0 0 0 0 0 0 0 0 0 0 0 0 0 0 0 0 0 0 0 0 0 0
0 0 0 0 0 0 0 0 0 0 0 0 0 0 0 0 0 0 0 0 0 0 0 0 0 0 0 0 0 0 0 0 0 0 0 0 0 0
0 0 0 0 0 0 0 0 0 0 0 0 0 0 0 0 0 0 0 0 0 0 0 0 0 0 0 0 0 0 0 0 0 0 0 0 0 0
0 0 0 0 0 0 0 0 0 0 0 0 0 0 0 0 0 0 0 0 0 0 0 0 0 0 0 0 0 0 0 0 0 0 0 0 0 0
0 0 0 0 0 0 0 0 0 0 0 0 0 0 0 0 0 0 0 0 0 0 0 0 0 0 0 0 0 0 0 0 0 0 0 0 0 0
0 0 0 0 0 0 0 0 0 0 0 0 0 0 0 0 0 0 0 0 0 0 0 0 0 0 0 0 0 0 0 0 0 0 0 0 0 0
0 0 0 0 0 0 0 0 0 0 0 0 0 0 0 0 0 0 0 0 0 0 0 0 0 0 0 0 0 0 0 0 0 0 0 0 0 0
0 0 0 0 0 0 0 0 0 0 0 0 0 0 0 0 0 0 0 0 0 0 0 0 0 0 0 0 0 0 0 0 0 0 0 0 0 0
0 0 0 0 0 0 0 0 0 0 0 0 0 0 0 0 0 0 0 0 0 0 0 0 0 0 0 0 0 0 0 0 0 0 0 0 0 0
0 0 0 0 0 0 0 0 0 0 0 0 0 0 0 0 0 0 0 0 0 0 0 0 0 0 0 0 0 0 0 0 0 0 0 0 0 0
0 0 0 0 0 0 0 0 0 0 0 0 0 0 0 0 0 0 0 0 0 0 0 0 0 0 0 0 0 0 0 0 0 0 0 0 0 0
0 0 0 0 0 0 0 0 0 0 0 0 0 0 0 0 0 0 0 0 0 0 0 0 0 0 0 0 0 0 0 0 0 0 0 0 0 0
0 0 0 0 0 0 0 0 0 0 0 0 0 0 0 0 0 0 0 0 0 0 0 0 0 0 0 0 0 0 0 0 0 0 0 0 0 0
0 0 0 0 0 0 0 0 0 0 0 0 0 0 0 0 0 0 0 0 0 0 0 0 0 0 0 0 0 0 0 0 0 0 0 0 0 0
0 0 0 0 0 0 0 0 0 0 0 0 0 0 0 0 0 0 0 0 0 0 0 0 0 0 0 0 0 0 0 0 0 0 0 0 0 0
0 0 0 0 0 0 0 0 0 0 0 0 0 0 0 0 0 0 0 0 0 0 0 0 0 0 0 0 0 0 0 0 0 0 0 0 0 0
0 0 0 0 0 0 0 0 0 0 0 0 0 0 0 0 0 0 0 0 0 0 0 0 0 0 0 0 0 0 0 0 0 0 0 0 0 0
0 0 0 0 0 0 0 0 0 0 0 0 0 0 0 0 0 0 0 0 0 0 0 0 0 0 0 0 0 0 0 0 0 0 0 0 0 0
0 0 0 0 0 0 0 0 0 0 0 0 0 0 0 0 0 0 0 0 0 0 0 0 0 0 0 0 0 0 0 0 0 0 0 0 0 0
Height
5882 5881 5881 5880 5879 5879 5878 5878 5878 5877 5877 5876 5875 5875 5874 5874 5874 5874 5873 5873 5872 5872 5871 5870 5870 5869 5868 5867 5865 5864 5863 5862 5862 5861 5861 5861 5860 5861
5883 5882 5881 5880 5879 5878 5877 5877 5876 5876 5875 5874 5873 5872 5872 5871 5871 5871 5871 5870 5870 5869 5868 5867 5866 5865 5864 5863 5862 5862 5861 5860 5859 5858 5857 5857 5856 5856
5882 5881 5880 5880 5879 5878 5877 5876 5875 5874 5873 5872 5871 5870 5869 5869 5869 5869 5868 5868 5867 5866 5865 5864 5863 5862 5861 5860 5858 5857 5856 5856 5855 5854 5853 5852 5851 5850
5882 5880 5879 5879 5878 5876 5875 5874 5873 5872 5871 5870 5869 5868 5867 5866 5866 5865 5865 5864 5863 5862 5861 5860 5859 5857 5856 5855 5854 5853 5852 5851 5850 5849 5848 5847 5846 5845
5880 5879 5878 5877 5876 5875 5874 5872 5871 5870 5868 5867 5866 5865 5864 5864 5863 5862 5861 5860 5859 5858 5857 5856 5854 5852 5851 5850 5849 5847 5846 5845 5844 5843 5842 5840 5839 5838
5879 5877 5876 5875 5874 5873 5871 5870 5868 5867 5865 5864 5863 5862 5861 5860 5859 5858 5857 5856 5855 5853 5852 5850 5849 5847 5845 5844 5842 5841 5839 5838 5837 5835 5834 5833 5831 5830
5876 5875 5874 5873 5871 5870 5869 5867 5866 5864 5862 5861 5859 5858 5857 5856 5855 5854 5853 5851 5850 5848 5846 5844 5842 5840 5838 5836 5835 5833 5831 5830 5828 5827 5825 5824 5822 5821
5874 5873 5871 5870 5869 5867 5865 5864 5862 5860 5859 5857 5855 5854 5853 5851 5850 5848 5847 5846 5844 5842 5840 5838 5835 5833 5831 5828 5826 5825 5823 5821 5819 5817 5815 5813 5812 5810
5871 5869 5868 5867 5865 5863 5862 5860 5858 5856 5854 5852 5850 5849 5847 5846 5844 5842 5841 5839 5837 5835 5833 5830 5828 5825 5822 5820 5818 5816 5813 5811 5809 5806 5804 5802 5800 5798
5867 5865 5864 5862 5861 5859 5857 5855 5853 5851 5849 5847 5845 5843 5841 5839 5837 5836 5833 5832 5829 5827 5824 5822 5819 5817 5814 5811 5808 5806 5803 5800 5798 5795 5792 5790 5787 5785
5862 5860 5859 5857 5856 5854 5852 5849 5847 5845 5843 5841 5839 5836 5834 5832 5830 5828 5825 5823 5821 5818 5815 5812 5810 5807 5804 5801 5798 5795 5792 5789 5786 5783 5780 5777 5774 5771
5857 5855 5853 5851 5850 5847 5845 5843 5841 5838 5836 5834 5831 5829 5826 5823 5821 5818 5816 5813 5810 5808 5805 5802 5799 5796 5793 5790 5786 5783 5780 5777 5773 5770 5767 5764 5760 5757
5850 5848 5847 5845 5843 5840 5838 5836 5833 5831 5828 5825 5823 5820 5817 5814 5811 5808 5805 5802 5799 5796 5793 5790 5786 5783 5780 5777 5774 5770 5766 5763 5759 5756 5752 5749 5745 5741
5843 5841 5839 5837 5835 5833 5830 5828 5825 5822 5819 5816 5813 5810 5807 5803 5800 5797 5794 5790 5787 5784 5780 5776 5773 5770 5766 5763 5760 5756 5752 5748 5744 5741 5737 5733 5729 5725
5835 5833 5830 5828 5826 5824 5821 5818 5815 5812 5809 5805 5802 5799 5796 5792 5789 5785 5782 5778 5775 5771 5767 5763 5760 5756 5752 5748 5745 5741 5738 5734 5729 5725 5721 5716 5712 5708
5826 5823 5821 5819 5816 5813 5810 5807 5804 5801 5797 5794 5790 5787 5783 5780 5776 5772 5769 5765 5762 5758 5753 5749 5745 5741 5737 5733 5729 5726 5722 5718 5713 5708 5704 5699 5694 5689
5816 5814 5811 5809 5806 5803 5799 5796 5792 5789 5785 5782 5778 5774 5771 5767 5763 5759 5755 5751 5748 5744 5740 5735 5731 5726 5722 5718 5714 5710 5705 5701 5696 5691 5687 5682 5677 5671
5806 5803 5800 5797 5794 5791 5787 5784 5780 5776 5772 5769 5765 5761 5757 5754 5750 5746 5741 5737 5733 5729 5724 5720 5715 5711 5707 5703 5698 5693 5688 5683 5679 5673 5668 5663 5659 5653
5795 5792 5789 5786 5782 5778 5775 5771 5767 5763 5759 5755 5751 5747 5743 5739 5735 5731 5727 5722 5718 5714 5709 5704 5699 5694 5690 5687 5683 5676 5670 5665 5660 5656 5650 5644 5640 5634
5783 5779 5776 5773 5769 5765 5761 5757 5753 5749 5745 5741 5737 5733 5728 5724 5720 5716 5712 5707 5702 5698 5694 5689 5683 5678 5673 5669 5665 5660 5653 5647 5641 5637 5632 5626 5621 5615
5770 5767 5763 5759 5755 5751 5747 5743 5739 5735 5731 5726 5722 5718 5713 5709 5705 5701 5696 5692 5687 5682 5678 5673 5668 5662 5656 5651 5647 5643 5637 5630 5623 5618 5612 5607 5602 5597
5757 5753 5749 5745 5741 5737 5733 5729 5724 5720 5716 5712 5707 5703 5699 5694 5690 5685 5681 5676 5671 5666 5661 5657 5651 5646 5640 5634 5629 5625 5620 5614 5607 5601 5595 5588 5582 5577
5743 5738 5734 5730 5726 5722 5718 5714 5710 5705 5701 5697 5692 5688 5683 5679 5674 5670 5665 5660 5655 5650 5645 5640 5635 5629 5624 5618 5613 5608 5603 5597 5591 5586 5580 5573 5566 5560
Wind_Speed
4 4 2 2 1 1 2 2 2 3 4 5 5 6 8 8 9 9 9 9 9 10 11 12 13 13 14 14 14 14 15 14 15 16 16 17 18 19
3 3 2 2 3 3 4 4 4 5 6 7 7 8 8 9 9 10 10 11 11 12 12 13 14 14 15 15 16 17 16 17 17 18 18 18 20 21
3 3 3 4 5 5 5 5 6 6 7 8 9 9 10 10 10 10 11 12 12 13 14 14 15 15 15 16 17 18 18 18 19 19 20 21 21 22
5 5 6 6 6 7 6 7 7 8 9 10 10 10 10 11 11 12 13 13 14 15 16 16 17 18 18 18 18 19 19 20 20 21 22 23 24 25
7 7 7 7 8 8 8 9 9 10 11 11 11 11 11 12 13 14 15 16 16 17 18 18 19 20 20 21 21 22 22 23 23 24 24 25 26 27
8 8 9 9 9 9 10 10 11 12 12 13 12 12 13 14 15 16 17 18 18 20 20 21 22 23 23 24 24 25 26 26 27 28 28 29 30 31
9 10 10 10 10 11 12 12 13 14 14 14 14 14 15 16 16 18 18 19 21 22 23 24 25 26 27 27 27 27 29 30 31 31 32 33 34 34
12 12 12 12 12 13 14 15 15 16 16 16 16 17 18 19 19 20 21 22 23 24 25 26 27 28 29 30 30 30 31 32 33 34 35 36 37 38
14 14 14 14 15 16 17 17 18 18 19 19 19 20 21 22 23 23 24 25 26 27 28 29 30 31 32 32 33 34 35 35 36 37 39 39 40 40
16 16 17 17 18 19 19 20 20 20 21 21 22 23 24 25 26 27 28 29 30 31 31 32 32 34 35 36 37 37 38 39 40 41 41 42 43 44
19 19 20 20 21 21 22 22 23 23 24 25 26 27 27 28 29 30 31 32 33 34 35 36 36 37 38 39 40 41 41 42 43 43 44 44 45 46
22 22 23 23 24 24 24 25 26 26 27 28 29 30 31 32 33 34 35 35 36 37 38 39 40 40 40 41 42 43 44 44 45 46 46 47 48 49
25 25 26 27 27 27 28 28 29 30 31 32 33 34 35 36 37 37 38 39 40 41 41 42 43 43 44 44 44 45 46 47 47 48 49 50 51 52
27 28 28 29 30 31 31 32 33 33 34 35 36 36 37 38 39 40 41 42 43 44 44 45 45 46 46 47 47 48 48 49 50 50 52 53 54 55
29 30 30 31 32 33 34 35 36 36 37 38 38 39 40 41 41 42 43 44 45 46 46 47 47 48 48 49 49 50 50 50 52 53 54 55 56 56
32 32 33 34 35 36 37 38 38 39 40 40 41 41 42 42 43 44 45 46 46 47 48 48 49 50 50 51 51 51 52 52 53 54 55 55 56 58
34 34 35 36 37 38 39 40 41 41 42 42 42 43 43 44 45 46 46 47 48 48 48 49 50 51 52 53 53 53 54 54 55 55 55 56 57 59
35 37 38 39 40 41 42 42 43 43 43 44 44 44 45 45 46 47 48 48 49 49 50 51 52 52 53 53 54 55 56 56 56 57 57 58 58 60
38 39 40 41 42 43 44 44 45 45 45 45 46 47 47 47 48 49 50 50 50 51 52 53 53 53 54 54 54 56 57 57 57 58 59 60 60 60
41 42 43 44 44 44 45 45 46 46 47 47 47 48 49 49 50 50 51 52 52 53 53 54 54 55 56 56 55 55 56 57 58 59 59 60 61 61
43 44 44 45 46 46 46 46 47 47 48 48 49 49 50 50 51 51 52 53 53 54 54 55 55 56 57 57 57 56 57 57 59 59 60 60 60 59
45 46 47 47 48 48 48 48 49 49 49 49 50 50 50 51 51 52 53 54 54 55 55 56 56 56 57 57 57 56 56 56 57 58 58 59 59 59
47 48 49 49 49 49 50 50 50 50 50 50 51 51 51 52 52 53 54 55 55 55 56 56 56 56 56 56 56 55 55 55 56 56 56 56 57 57
Wind_Direction
45 43 38 23 351 323 308 292 284 278 279 277 271 266 268 272 273 275 278 278 280 277 280 281 280 278 279 280 281 282 282 280 275 273 272 272 271 270
6 7 357 338 325 318 315 305 295 292 289 285 286 285 281 278 278 280 285 284 284 284 284 285 286 284 282 281 281 280 279 279 278 277 275 274 273 271
321 322 321 319 320 320 312 305 302 299 295 291 288 287 286 284 283 283 285 285 287 290 290 289 288 287 286 284 282 285 282 281 281 279 278 277 276 274
307 303 300 303 306 311 310 305 302 301 300 295 291 289 288 285 284 284 285 285 287 289 290 290 290 289 287 285 286 286 284 283 283 282 282 281 280 277
306 305 298 297 299 301 302 302 300 299 300 296 292 289 287 288 288 287 288 289 289 290 291 291 289 289 288 286 286 286 285 283 282 282 282 280 280 280
302 300 297 296 295 297 297 299 298 298 298 295 291 288 289 290 290 290 289 291 291 291 292 292 290 289 289 289 287 285 285 284 283 283 281 281 282 282
300 300 298 297 296 297 297 299 298 298 298 295 291 290 291 291 292 292 290 292 292 292 292 293 293 292 290 290 289 288 286 285 285 284 283 282 282 281
293 294 295 296 297 297 297 299 298 298 296 294 292 292 292 290 290 291 290 291 291 292 293 293 293 293 292 291 291 291 290 289 289 287 286 285 284 282
289 291 292 294 295 295 294 295 295 294 294 292 292 293 292 291 290 290 290 290 291 291 292 293 292 292 291 291 291 290 291 291 291 289 288 287 286 285
286 287 289 291 292 293 293 294 294 293 293 291 293 294 293 292 291 291 291 291 291 291 291 291 291 291 291 291 290 290 290 290 290 290 289 288 287 286
286 287 288 289 291 292 293 293 293 293 293 292 292 293 293 292 292 292 291 291 292 292 291 290 290 290 290 290 290 290 290 290 289 289 288 288 287 287
285 287 287 288 290 292 292 293 293 292 293 293 292 292 292 292 292 293 292 292 292 292 291 291 291 290 290 289 289 289 289 288 288 289 289 289 288 288
285 286 287 287 288 289 290 291 292 292 292 292 293 292 292 292 292 292 292 292 292 292 292 292 291 291 291 290 289 289 289 288 288 289 289 289 289 289
285 286 287 288 288 289 290 290 291 291 291 291 291 291 292 292 292 292 292 293 292 292 292 292 292 291 291 291 291 291 291 290 290 290 290 290 289 289
285 287 288 289 290 290 290 289 290 290 291 291 291 291 291 291 292 292 292 292 292 292 292 292 292 292 291 292 292 291 291 291 291 291 291 291 290 290
287 288 288 289 290 290 290 291 290 290 291 291 291 291 291 291 292 292 292 291 291 291 291 291 292 292 292 292 293 292 292 292 292 292 292 292 291 291
287 287 288 289 290 290 291 291 291 292 292 292 292 291 291 291 292 292 292 292 292 292 292 292 292 292 292 293 293 293 293 294 294 293 293 293 293 293
288 289 289 290 290 291 291 291 292 293 292 292 292 292 292 292 292 292 293 293 293 293 293 293 293 293 293 293 293 294 293 294 294 294 294 294 294 295
289 289 290 291 291 291 292 292 292 292 292 292 292 292 292 292 292 292 293 293 293 293 293 293 293 293 294 294 294 294 294 294 294 294 295 295 295 296
289 290 290 291 292 292 292 292 292 292 293 293 293 292 292 292 292 292 292 293 293 293 294 294 294 295 295 295 295 295 294 294 295 295 295 296 296 297
289 290 291 292 292 292 292 292 292 293 293 293 293 293 292 292 292 292 293 293 294 294 294 295 295 296 296 296 296 296 296 295 295 296 297 297 297 297
290 291 291 292 292 292 292 292 292 293 293 293 293 293 292 292 292 292 293 293 293 294 294 295 295 296 296 296 297 297 297 297 297 298 298 299 299 299
291 291 291 291 291 291 292 293 292 292 292 292 292 292 292 292 292 293 293 294 294 294 295 295 295 296 296 296 297 298 298 299 299 299 300 300 300 300